Location: Aciu?a
(46.2833°N, 22.4500°E)
Time: 13:42:07
(UTC+00:00)

SL-8 R/B - Pass Details

Date: 25 October 2021
Orbit: 656 x 667 km, 48.4° (Epoch: 07 December)

Event Time Altitude Azimuth Distance (km) Brightness Sun altitude
Rises 16:37:22 0° 268° (W) 2,981 9.2 -12.9°
Reaches altitude 10° 16:39:43 10° 271° (W) 2,071 7.7 -13.3°
Maximum altitude 16:44:29 69° 355° (N) 709 3.8 -14.1°
Enters shadow 16:47:28 23° 74° (ENE) 1,408 4.8 -14.6°
